PIA775 OPIS-EGNM

Flight info

Callsign PIA775
Flight time N/A
Altitude 37000
Route OPIS/28R N0479F320 KALM1J KALMI J139 HANGU L509 TAPIS P173 DAVET B475 NINOP/N0473F340 A909 RODAR N644 TETRO M10 SARPI UN37 TBN UM11 ARLAT/N0463F360 UM11 CRM UL746 ODERO L746 LUGEB DCT LUVEL DCT ERGOM DCT TOVKA DCT RENKA/N0461F380 L610 STAUB/N0439F240 L610 UPALA/N0464F280 L610 INBED/N0437F240 L610 LAM/N0463F380 UN57 WELIN T420 TNT DCT EGNM/32
Aircraft A310/H-V/N

Departure

Time N/A
Airport Islamabad International Airport (OPIS)

Arrival

Time 2026-04-28 19:38
Airport Leeds Bradford Airport (EGNM)
Time Latitude Longitude Altitude Speed Heading
2026-04-28 19:17 53.03088 -1.65759 19335 ft 365 kts 335°
2026-04-28 19:17 53.05268 -1.67899 18921 ft 358 kts 341°
2026-04-28 19:17 53.07588 -1.68839 18553 ft 334 kts
2026-04-28 19:17 53.09866 -1.68548 18184 ft 323 kts 12°
2026-04-28 19:18 53.12087 -1.68142 17785 ft 320 kts 11°
2026-04-28 19:18 53.14302 -1.67885 17280 ft 319 kts
2026-04-28 19:18 53.16523 -1.67750 16708 ft 320 kts
2026-04-28 19:18 53.18742 -1.67684 16155 ft 319 kts
2026-04-28 19:19 53.20966 -1.67846 15582 ft 325 kts 354°
2026-04-28 19:19 53.23187 -1.68391 15025 ft 318 kts
2026-04-28 19:19 53.25298 -1.67609 14459 ft 308 kts 28°
2026-04-28 19:19 53.26992 -1.65526 13878 ft 301 kts 51°
2026-04-28 19:20 53.28000 -1.62512 13270 ft 298 kts 73°
2026-04-28 19:20 53.28166 -1.59081 12666 ft 299 kts 94°
2026-04-28 19:20 53.28180 -1.55649 12080 ft 296 kts 77°
2026-04-28 19:20 53.28862 -1.52466 11534 ft 294 kts 67°
2026-04-28 19:21 53.29718 -1.49370 10974 ft 292 kts 65°
2026-04-28 19:21 53.30681 -1.46389 10401 ft 292 kts 54°
2026-04-28 19:21 53.32235 -1.44210 9775 ft 296 kts 31°
2026-04-28 19:21 53.34234 -1.43303 9178 ft 303 kts
2026-04-28 19:22 53.36323 -1.43854 8604 ft 309 kts 345°
2026-04-28 19:22 53.36999 -1.44274 8409 ft 309 kts 342°
2026-04-28 19:22 53.40194 -1.46561 8059 ft 291 kts 340°
2026-04-28 19:22 53.42042 -1.47921 8009 ft 289 kts 340°
2026-04-28 19:23 53.43832 -1.49241 8005 ft 292 kts 340°
2026-04-28 19:23 53.45693 -1.50610 8008 ft 291 kts 340°
2026-04-28 19:23 53.47524 -1.51964 8226 ft 288 kts 340°
2026-04-28 19:23 53.49382 -1.53336 8344 ft 294 kts 340°
2026-04-28 19:24 53.51249 -1.54715 8380 ft 292 kts 340°
2026-04-28 19:24 53.53111 -1.56099 8395 ft 293 kts 340°
2026-04-28 19:24 53.54972 -1.57491 8414 ft 294 kts 339°
2026-04-28 19:24 53.56632 -1.59546 8421 ft 301 kts 319°
2026-04-28 19:25 53.58066 -1.62128 8423 ft 302 kts 316°
2026-04-28 19:25 53.59465 -1.64767 8423 ft 303 kts 315°
2026-04-28 19:25 53.60868 -1.67418 8433 ft 302 kts 315°
2026-04-28 19:25 53.62264 -1.70067 8415 ft 303 kts 315°
2026-04-28 19:26 53.63661 -1.72725 8421 ft 303 kts 315°
2026-04-28 19:26 53.65062 -1.75372 8437 ft 302 kts 315°
2026-04-28 19:26 53.66452 -1.77997 8300 ft 306 kts 315°
2026-04-28 19:26 53.67896 -1.80728 7890 ft 308 kts 315°
2026-04-28 19:27 53.69319 -1.83411 7419 ft 305 kts 315°
2026-04-28 19:27 53.70732 -1.86057 6938 ft 302 kts 315°
2026-04-28 19:27 53.72136 -1.88665 6467 ft 298 kts 317°
2026-04-28 19:27 53.73640 -1.90962 5983 ft 296 kts 315°
2026-04-28 19:28 53.74653 -1.93985 5497 ft 299 kts 289°
2026-04-28 19:28 53.74829 -1.97475 5038 ft 300 kts 262°
2026-04-28 19:28 53.74125 -2.00737 4643 ft 293 kts 234°
2026-04-28 19:28 53.72717 -2.03036 4501 ft 276 kts 206°
2026-04-28 19:29 53.70919 -2.03968 4465 ft 269 kts 178°
2026-04-28 19:29 53.69710 -2.03771 4466 ft 267 kts 160°
2026-04-28 19:29 53.67683 -2.01543 4456 ft 256 kts 123°
2026-04-28 19:29 53.67137 -1.99813 4447 ft 249 kts 105°
2026-04-28 19:30 53.66971 -1.96941 4427 ft 248 kts 87°
2026-04-28 19:30 53.67075 -1.94030 4422 ft 249 kts 85°
2026-04-28 19:30 53.67202 -1.91131 4419 ft 247 kts 85°
2026-04-28 19:30 53.67318 -1.88224 4424 ft 248 kts 85°
2026-04-28 19:31 53.67430 -1.85315 4428 ft 249 kts 85°
2026-04-28 19:31 53.67535 -1.82403 4432 ft 249 kts 85°
2026-04-28 19:31 53.67636 -1.79490 4428 ft 248 kts 85°
2026-04-28 19:31 53.67744 -1.76590 4429 ft 247 kts 85°
2026-04-28 19:32 53.67854 -1.73697 4430 ft 248 kts 85°
2026-04-28 19:32 53.67960 -1.70795 4435 ft 248 kts 85°
2026-04-28 19:32 53.68073 -1.67897 4420 ft 247 kts 85°
2026-04-28 19:32 53.68186 -1.64992 4386 ft 248 kts 84°
2026-04-28 19:33 53.68394 -1.62084 4189 ft 251 kts 81°
2026-04-28 19:33 53.68653 -1.59231 3963 ft 248 kts 80°
2026-04-28 19:33 53.68909 -1.56374 3750 ft 246 kts 80°
2026-04-28 19:33 53.69164 -1.53518 3533 ft 246 kts 80°
2026-04-28 19:34 53.69421 -1.50657 3308 ft 246 kts 80°
2026-04-28 19:34 53.69705 -1.47811 3075 ft 245 kts 73°
2026-04-28 19:34 53.70560 -1.45385 2964 ft 243 kts 45°
2026-04-28 19:34 53.72025 -1.44068 2897 ft 238 kts 13°
2026-04-28 19:35 53.73608 -1.44503 2895 ft 233 kts 334°
2026-04-28 19:35 53.74762 -1.46351 2930 ft 224 kts 314°
2026-04-28 19:35 53.75740 -1.48317 2902 ft 213 kts 314°
2026-04-28 19:35 53.76676 -1.50174 2901 ft 202 kts 315°
2026-04-28 19:36 53.77596 -1.51967 2903 ft 204 kts 315°
2026-04-28 19:36 53.78565 -1.53750 2890 ft 206 kts 320°
2026-04-28 19:36 53.79638 -1.55387 2615 ft 213 kts 323°
2026-04-28 19:36 53.80759 -1.57095 2104 ft 216 kts 322°
2026-04-28 19:37 53.81836 -1.58759 1796 ft 200 kts 322°
2026-04-28 19:37 53.82489 -1.59762 1616 ft 184 kts 323°
2026-04-28 19:37 53.83652 -1.61546 1279 ft 152 kts 325°
2026-04-28 19:37 53.84402 -1.62686 1121 ft 142 kts 322°
2026-04-28 19:38 53.85152 -1.63822 983 ft 148 kts 326°
2026-04-28 19:38 53.85917 -1.65036 689 ft 148 kts 328°
2026-04-28 19:38 53.86605 -1.66081 675 ft 112 kts 323°
2026-04-28 19:38 53.86971 -1.66648 676 ft 43 kts 312°
2026-04-28 19:39 53.87073 -1.66801 678 ft 18 kts 316°
2026-04-28 19:39 53.87133 -1.66889 681 ft 3 kts 316°
2026-04-28 19:39 53.87184 -1.66969 684 ft 17 kts 317°
2026-04-28 19:39 53.87254 -1.67010 683 ft 12 kts 12°
2026-04-28 19:40 53.87334 -1.66991 689 ft 12 kts
2026-04-28 19:40 53.87396 -1.67035 686 ft 11 kts 298°
2026-04-28 19:40 53.87352 -1.67184 687 ft 14 kts 198°
2026-04-28 19:40 53.87276 -1.67115 685 ft 16 kts 138°
2026-04-28 19:41 53.87171 -1.66957 681 ft 22 kts 139°
2026-04-28 19:41 53.87057 -1.66778 679 ft 18 kts 136°
2026-04-28 19:41 53.86983 -1.66652 676 ft 12 kts 126°
2026-04-28 19:41 53.86978 -1.66548 677 ft 5 kts 65°
2026-04-28 19:42 53.86992 -1.66464 680 ft 7 kts 93°
2026-04-28 19:42 53.86977 -1.66392 677 ft 9 kts 115°
2026-04-28 19:42 53.86963 -1.66347 679 ft 8 kts 119°
2026-04-28 19:42 53.86931 -1.66271 680 ft 16 kts 130°
2026-04-28 19:43 53.86842 -1.66131 677 ft 9 kts 137°
2026-04-28 19:43 53.86814 -1.66012 678 ft 12 kts 93°
2026-04-28 19:43 53.86811 -1.65897 674 ft 7 kts 91°
2026-04-28 19:43 53.86814 -1.65836 673 ft 3 kts 71°
2026-04-28 19:44 53.86821 -1.65829 673 ft 3 kts 31°
2026-04-28 19:44 53.86839 -1.65836 673 ft 3 kts 343°
2026-04-28 19:44 53.86863 -1.65839 673 ft 3 kts
2026-04-28 19:44 53.86873 -1.65839 673 ft 0 kts
2026-04-28 19:45 53.86874 -1.65839 673 ft 0 kts